sat.trackr.live / text

‹ back to catalog

STARLINK-36485

NORAD 67312 · 2026-002H

PAYLOAD ACTIVE UNKNOWN

§ Identity

Operator
Country
US
Launch date
2026-01-04
Launch site
AFETR
Launch vehicle
Mass (kg)
RCS (m²)

Purposes: comms

External: N2YO · Heavens-Above · Gunter

§ Orbital elements

Epoch: 2026-09-19T19:47:09.090528Z

Period
94.27 min
Inclination
43.0025°
Eccentricity
0.0001408
Mean motion
15.27585310 rev/d
Perigee alt
482.1 km
Apogee alt
484.0 km
Semi-major
6,861.2 km
B*
3.9123e-4
RAAN
308.5216°
Arg perigee
271.4958°
Mean anomaly
88.5733°
Rev number
4,077

§ Raw data

STARLINK-364851 67312U 26002H   26262.82441077  .00010521  00000+0  39123-3 0  99992 67312  43.0025 308.5216 0001408 271.4958  88.5733 15.27585310 40778

JSON: /api/v1/satellites/67312 · /tle

For live sub-satellite position, see the globe view (requires WebGL).

§ Visibility from observer

Set your observer location to see the next 7 days of passes ≥ 10°. The values pass through the URL so the page stays shareable.

No JS? Fill the form by hand. The geolocation button needs JavaScript.